www.pogodaiklimat.ru

ПОГОДА в Шангнаке, AK

  • Прогноз погоды в Шангнаке
  • Монитор погоды в Шангнаке
  • Климат в Шангнаке

АРХИВ ПОГОДЫ в Шангнаке

Время (UTC), дата Ветер
(напр.,м/с)
 
Видим.   Явления Облачность Т
(С)
Тd
(С)
f
(%)
Тe
(С)
Тes
(С)
Комфортность

P
(гПа)

Po
(гПа)
Тmin
(С)
Tmax
(С)
R
(мм)
SD
(см)
11:56 23.03 В  8
{11} 
16 км    ясно  0.0  -5.6  66  -8  -8    1007.2  999.5         
12:56 23.03 В  16 км    ясно  0.0  -5.6  66  -8  -8    1007.2  999.5         
13:56 23.03 В  10  16 км    ясно  -0.6  -5.6  69  -9  -9    1007.5  999.5         
14:56 23.03 В  16 км    ясно  -0.6  -5.6  69  -8  -8    1007.3  999.5         
15:56 23.03 В  9
{12} 
16 км    ясно  -0.6  -5.6  69  -9  -9    1007.8  999.8         
16:56 23.03 В  16 км    ясно  -0.6  -5.6  69  -9  -9    1007.9  999.8  -0.6  0.0     
17:56 23.03 В  9
{12} 
16 км    ясно  -0.6  -5.6  69  -9  -9    1008.1  1000.2         
18:56 23.03 В  9
{12} 
16 км    ясно  0.0  -6.1  63  -8  -8    1008.1  1000.2         
19:56 23.03 В  16 км    ясно  +1.1  -5.6  61  -5  -5    1008.3  1000.5         
20:56 23.03 В  9
{11} 
16 км    ясно  +1.7  -5.6  58  -6  -6    1008.5  1000.5         
21:56 23.03 В  16 км    ясно  +1.7  -5.0  61  -5  -5    1008.5  1000.9         
22:56 23.03 В  10  16 км    ясно  +2.8  -5.0  56  -4  -4    1008.1  1000.2  -0.6  +2.8     
23:56 23.03 В  8
{11} 
16 км    ясно  +2.8  -4.4  59  -4  -3    1008.4  1000.5         
00:56 24.03 В  16 км    ясно  +2.8  -4.4  59  -3  -3    1008.9  1001.2         
01:56 24.03 В  16 км    5/0 2250 м
[средняя] 
+2.2  -3.9  64  -4  -4    1008.8  1000.9         
02:56 24.03 В  16 км    8/0 2400 м
[средняя] 
+1.7  -4.4  64  -5  -5    1009.0  1001.2         
03:56 24.03 В  16 км    2/0 2250 м
[средняя] 
+1.1  -5.0  64  -6  -6    1009.7  1001.9         
04:56 24.03 В  16 км    ясно  0.0  -5.6  66  -7  -7    1010.9  1002.9  0.0  +2.8     
05:56 24.03 В  16 км    2/0 3600 м
[средняя] 
+1.1  -6.1  59  -6  -6    1011.2  1003.2         
06:56 24.03 В  16 км    5/0 3600 м
[средняя] 
+0.6  -5.6  63  -7  -7    1011.8  1003.9         
07:56 24.03 В  16 км    ясно  +1.1  -5.6  61  -6  -6    1012.0  1004.2         
08:56 24.03 В  8
{11} 
16 км    5/2 1800 м
[средняя] 
+0.6  -5.6  63  -7  -7    1012.8  1004.9         
09:56 24.03 В  16 км    5/2 1800 м
[средняя] 
+0.6  -6.1  61  -7  -7    1013.4  1005.6         
10:56 24.03 В  16 км  слабый снег  10/10 840 м  +0.6  -5.6  63  -6  -6    1013.9  1005.9  0.0  +1.1     
11:56 24.03 В  14 км  слабый снег  10/10 750 м  +0.6  -4.4  69  -7  -7    1014.2  1006.2         
12:56 24.03 В  8
{11} 
16 км    10/10 1230 м  +0.6  -5.0  66  -7  -7    1014.1  1006.2         
13:56 24.03 В  9
{12} 
16 км    10/5 1500 м
[средняя] 
0.0  -3.3  78  -8  -8    1014.8  1006.9         
14:56 24.03 В  9
{13} 
16 км    8/8 1200 м  0.0  -3.9  75  -8  -8    1015.0  1007.2         
15:56 24.03 В  8
{12} 
16 км    ясно  -0.6  -3.9  78  -8  -8    1014.8  1006.9         
16:56 24.03 В  8
{11} 
16 км    10/10 1800 м  0.0  -4.4  72  -8  -8    1015.0  1006.9  -0.6  +0.6     
17:56 24.03 В  8
{13} 
16 км    10/10 1800 м  +0.6  -4.4  69  -7  -7    1014.6  1006.6         
18:56 24.03 ЮВ  10
{13} 
16 км    ясно  +1.1  -3.9  69  -7  -7    1014.2  1006.2         
19:56 24.03 В  10
{14} 
16 км    ясно  +2.8  -3.3  64  -5  -5    1014.4  1006.6         
20:56 24.03 В  9
{14} 
16 км    10/10 1800 м  +2.8  -2.8  67  -4  -4    1014.2  1006.2         
21:56 24.03 В  8
{12} 
16 км    10/10 1500 м  +3.3  -2.8  64  -3  -3    1013.9  1005.9         
22:56 24.03 В  11
{14} 
16 км  слабый дождь  10/10 720 м  +1.7  0.0  88  -7  -7    1013.2  1005.2  0.0  +3.3     
23:03 24.03 В  16 км  слабый дождь  10/10 780 м  +2.0  0.0  87  -6  -6      1005.2         
23:31 24.03 В  10
{13} 
16 км    10/10 690 м  +2.0  -1.0  80  -6  -6      1004.9         
23:56 24.03 В  13
{16} 
16 км    10/10 1230 м  +2.2  -0.6  82  -6  -6    1012.3  1004.6         
00:56 25.03 В  11
{14} 
16 км    10/10 1410 м  +2.2  0.0  85  -6  -6    1011.7  1003.9         
01:36 25.03 ЮВ  9
{16} 
13 км  дождь  10/10 450 м  +2.0  0.0  87  -6  -6      1004.2         
01:56 25.03 В  9
{11} 
16 км  слабый дождь  10/10 390 м  +1.7  0.0  88  -6  -6    1011.9  1003.9         
02:03 25.03 В  9
{12} 
16 км    10/10 390 м  +2.0  0.0  87  -6  -6      1003.9         
02:42 25.03 ЮВ  9
{13} 
14 км  слабый дождь  10/10 420 м  +1.0  0.0  93  -7  -7      1003.9         
02:56 25.03 ЮВ  8
{11} 
16 км  слабый дождь  10/10 360 м  +1.1  0.0  92  -6  -6    1012.0  1003.9         
03:27 25.03 ЮВ  16 км    10/10 300 м  +2.0  0.0  87  -4  -4      1004.2         
03:43 25.03 ЮВ  16 км  слабый дождь  10/10 300 м  +2.0  0.0  87  -4  -4      1004.2         
03:56 25.03 ЮВ  16 км  слабый дождь  8/8 900 м  +1.7  0.0  88  -4  -4    1012.4  1004.6         

 

Местоположение метеостанции Shungnak Airport: широта 66.8881 долгота -157.1624 высота над уровнем моря 60 м.

В архиве по умолчанию представлена погода в Шангнаке за последние 1-2 суток. Обновление информации о фактической погоде в базе происходит ежечасно! Архивные данные за месяц целиком и за предыдущие месяцы Вы можете получить, выбрав интересующий диапазон дат из раскрывающегося списка и нажав кнопку "Ввод!".

Внимание! Архив погоды МЕТАР в базе сайта хранится не более 60 дней. Нет смысла пытаться выбрать более раннюю дату.

Внимание! Время в таблицах - всемирное. Для получения местного времени необходимо прибавить поправку, которая в Шангнаке равна -9 ч.

Ветер - указаны скорость ветра в м/с и направление, откуда дует ветер: С - северный, СВ - северо-восточный, В - восточный, ЮВ - юго-восточный, Ю - южный, ЮЗ - юго-западный, З - западный, СЗ - северо-западный.
Видимость - горизонтальная дальность видимости в метрах или километрах. При видимости от 1 до 10 км при отсутствии осадков обычно наблюдается дымка, при ухудшении видимости до 1 км и менее - туман. В сухую погоду видимость может ухудшаться дымом, пылью или мглою.
Атмосферные явления - указаны явления, наблюдавшиеся в указанный момент времени.
Облачность - указаны через наклонную черту верхняя и нижняя облачность в баллах и высота нижней границы облаков в метрах. Внимание: облачность, как и прочие метеорологические величины в США измеряются автоматическими метеостанциями. Указанные значения в баллах носят условный характер и показывают процент времени, в течение которого, в среднем, лазерный луч высотомера отражался от облаков обратно.
T - Температура воздуха - температура, измеренная на высоте 2 м над землей.
Td - Температура точки росы - температура, при понижении до которой содержащийся в воздухе водяной пар достигнет насыщения.
f - Относительная влажность воздуха - влажноcть воздуха, измеренная на высоте 2 м над землей.
Te - Эффективная температура - температура, которую ощущает одетый по сезону человек в тени. Характеристика душности погоды. При расчете учитывается влияние влажности воздуха и скорости ветра на теплоощущения человека.
Tes - Эффективная температура на солнце - температура, которую ощущает человек, с поправкой на солнечный нагрев. Характеристика знойности погоды. Зависит от высоты солнца над горизонтом, облачности и скорости ветра. Ночью, в пасмурную погоду, а также при ветре 12 м/с и более поправка равна нулю.
P - Атмосферное давление - приведенное к уровню моря атмосферное давление.
Po - Атмосферное давление - измеренное на уровне метеостанции атмосферное давление.
Tmin - Минимальная температура - минимум температуры воздуха на высоте 2 м над землей.
Tmax - Максимальная температура - максимум температуры воздуха на высоте 2 м над землей.
R - Количество осадков - Количество выпавших осадков за 3 или 6 часов, мм.
SD - Снежный покров - Высота снежного покрова, см.